Weather History for KVTA - January, 2013

Change the Weather History Date:

Thursday, January 24, 2013

  Actual Average Record
Temperature  
Mean Temperature 18 °F -  
Max Temperature 23 °F 38 °F 36 °F (2015)
Min Temperature 14 °F 20 °F -2 °F (2014)
Degree Days  
Heating Degree Days 46    
Moisture  
Dew Point 10 °F    
Average Humidity 71    
Maximum Humidity 86    
Minimum Humidity 48    
Precipitation  
Precipitation 0.00 in - - ()
Sea Level Pressure  
Sea Level Pressure 30.34 in    
Wind  
Wind Speed 4 mph (NW)    
Max Wind Speed 14 mph    
Max Gust Speed 21 mph    
Visibility 7 miles    
Events Snow    
Averages and records for this station are not official NWS values.
T = Trace of Precipitation, MM = Missing Value Source: NWS Daily Summary

Daily Weather History Graph

Daily Weather History Graph

Search for Another Location

Airport or City:

Trip Planner

Search our weather history database for the weather conditions in past years. The results will help you decide how hot, cold, wet, or windy it might be!

Date:

Astronomy

Jan. 24, 2013 Rise Set
Actual Time 7:44 AM EST 5:39 PM EST
Civil Twilight 7:15 AM EST 6:08 PM EST
Nautical Twilight 6:42 AM EST 6:41 PM EST
Astronomical Twilight 6:10 AM EST 7:13 PM EST
Moon 3:40 PM EST (1/24) 5:41 AM EST (1/24)
Length of Visible Light 10h 53m
Length of Day
9h 54m
Waxing Gibbous, 94% of the Moon is Illuminated
Jan 24
Waxing Gibbous
Jan 26
Full
Feb 3
Last Quarter
Feb 10
New
Feb 17
First Quarter

Hourly Weather History & Observations

Time (EST) Temp. Windchill Dew Point Humidity Pressure Visibility Wind Dir Wind Speed Gust Speed Precip Events Conditions
12:03 AM 19.4 °F - 15.8 °F 86% 30.06 in 1.5 mi Calm Calm - 0.00 in Snow Light Snow
12:28 AM 17.6 °F - 14.0 °F 86% 30.05 in 2.0 mi Calm Calm - 0.00 in Snow Light Snow
12:37 AM 17.6 °F - 14.0 °F 86% 30.05 in 3.0 mi Calm Calm - 0.00 in Snow Light Snow
12:50 AM 19.4 °F - 14.0 °F 80% 30.05 in 3.0 mi Calm Calm - 0.00 in Snow Light Snow
12:54 AM 19.0 °F - 14.0 °F 81% 30.10 in 3.0 mi Calm Calm - 0.00 in Snow Light Snow
1:01 AM 19.4 °F - 14.0 °F 80% 30.05 in 3.0 mi Calm Calm - 0.00 in Snow Light Snow
1:26 AM 19.4 °F 10.4 °F 14.0 °F 80% 30.06 in 2.5 mi West 6.9 mph - 0.00 in Snow Light Snow
1:38 AM 19.4 °F 11.5 °F 14.0 °F 80% 30.07 in 1.8 mi West 5.8 mph - 0.00 in Snow Light Snow
1:47 AM 19.4 °F 10.4 °F 14.0 °F 80% 30.07 in 2.5 mi West 6.9 mph - 0.00 in Snow Light Snow
1:54 AM 19.0 °F 9.0 °F 14.0 °F 81% 30.11 in 2.0 mi West 8.1 mph - 0.00 in Snow Light Snow
2:54 AM 19.0 °F 10.0 °F 12.9 °F 77% 30.15 in 2.5 mi WNW 6.9 mph - 0.00 in Snow Light Snow
3:09 AM 17.6 °F 9.3 °F 12.2 °F 79% 30.12 in 4.0 mi WNW 5.8 mph - 0.00 in Snow Light Snow
3:54 AM 19.0 °F 8.2 °F 12.9 °F 77% 30.19 in 4.0 mi WNW 9.2 mph - 0.00 in Snow Light Snow
4:26 AM 19.4 °F 7.2 °F 12.2 °F 74% 30.17 in 2.0 mi WNW 11.5 mph - 0.00 in Snow Light Snow
4:40 AM 17.6 °F 5.7 °F 12.2 °F 79% 30.18 in 5.0 mi NW 10.4 mph 20.7 mph 0.00 in Snow Light Snow
4:54 AM 18.0 °F 6.1 °F 10.9 °F 74% 30.23 in 9.0 mi NW 10.4 mph - 0.00 in   Overcast
5:54 AM 16.0 °F 1.7 °F 10.0 °F 77% 30.30 in 6.0 mi NW 13.8 mph - 0.00 in Snow Light Snow
6:12 AM 15.8 °F 3.4 °F 8.6 °F 73% 30.27 in 10.0 mi NW 10.4 mph - 0.00 in   Mostly Cloudy
6:21 AM 14.0 °F 2.0 °F 8.6 °F 79% 30.28 in 10.0 mi NW 9.2 mph - 0.00 in   Mostly Cloudy
6:54 AM 16.0 °F 2.9 °F 6.1 °F 65% 30.35 in 10.0 mi NNW 11.5 mph 19.6 mph 0.00 in   Mostly Cloudy
7:54 AM 14.0 °F 3.9 °F 6.1 °F 71% 30.42 in 8.0 mi NW 6.9 mph - 0.00 in   Overcast
8:25 AM 14.0 °F 5.1 °F 6.8 °F 73% 30.39 in 10.0 mi WNW 5.8 mph - N/A   Scattered Clouds
8:54 AM 15.1 °F 6.4 °F 8.1 °F 74% 30.46 in 10.0 mi NW 5.8 mph - N/A   Partly Cloudy
9:09 AM 15.8 °F 2.7 °F 8.6 °F 73% 30.42 in 8.0 mi NW 11.5 mph - N/A   Mostly Cloudy
9:30 AM 15.8 °F 6.1 °F 8.6 °F 73% 30.43 in 10.0 mi NNW 6.9 mph - 0.00 in   Scattered Clouds
9:54 AM 17.1 °F 5.8 °F 7.0 °F 65% 30.50 in 10.0 mi NNW 9.2 mph - 0.00 in   Clear
10:54 AM 18.0 °F 8.7 °F 3.9 °F 54% 30.54 in 10.0 mi NNW 6.9 mph - N/A   Clear
11:54 AM 19.0 °F 11.1 °F 7.0 °F 59% 30.57 in 10.0 mi WNW 5.8 mph - N/A   Clear
12:54 PM 19.9 °F 11.1 °F 7.0 °F 57% 30.55 in 10.0 mi West 6.9 mph - N/A   Scattered Clouds
1:47 PM 23.0 °F 17.0 °F 10.4 °F 59% 30.50 in 10.0 mi Variable 4.6 mph - N/A   Mostly Cloudy
1:54 PM 19.9 °F 12.1 °F 8.1 °F 60% 30.54 in 10.0 mi WNW 5.8 mph - N/A   Mostly Cloudy
2:13 PM 21.2 °F 13.6 °F 8.6 °F 58% 30.50 in 10.0 mi NNE 5.8 mph - N/A   Mostly Cloudy
2:54 PM 23.0 °F - 8.1 °F 53% 30.54 in 10.0 mi Calm Calm - N/A   Scattered Clouds
3:54 PM 23.0 °F - 6.1 °F 48% 30.55 in 10.0 mi Calm Calm - N/A   Partly Cloudy
4:54 PM 21.9 °F 17.2 °F 5.0 °F 48% 30.53 in 10.0 mi North 3.5 mph - N/A   Clear
5:54 PM 21.0 °F 16.2 °F 3.9 °F 48% 30.55 in 10.0 mi NNE 3.5 mph - N/A   Clear
6:54 PM 18.0 °F - 9.0 °F 68% 30.57 in 10.0 mi Calm Calm - N/A   Clear
7:54 PM 16.0 °F - 8.1 °F 71% 30.58 in 10.0 mi Calm Calm - N/A   Clear
8:54 PM 15.1 °F - 9.0 °F 77% 30.56 in 10.0 mi Calm Calm - N/A   Clear
9:54 PM 14.0 °F - 9.0 °F 80% 30.55 in 10.0 mi Calm Calm - N/A   Clear
10:54 PM 17.1 °F - 10.0 °F 74% 30.54 in 10.0 mi Calm Calm - N/A   Clear
11:54 PM 18.0 °F 9.8 °F 6.1 °F 60% 30.52 in 10.0 mi East 5.8 mph - N/A   Clear